Погода в Даугавпилсе

Погода в Даугавпилсе : погода сейчас, прогноз погоды и архив. Всё, что Вы хотите узнать о погоде в Даугавпилсе!

Поиск расширенной информации на нашем сайте:

Другие новости

Новости СМИ2

Главная страница сайта

Новости сайта

03.07.2017

Напоминаем, что на нашем специализированном сайте Метеоцентр.Азия вы можете получить высокодетализированные автоматические прогнозы погоды по пунктам России, СНГ и мира в авиационном формате (включающие направление и скорость ветра, видимость, явления погоды, количество и форму облачности, нижнюю и верхнюю границу облачности).


Погода в Даугавпилсе - сегодня

Время (UTC), дата Ветер
(°,м/с) 
Видим.   Явления Облачность Т
(°С)
Тd
(°С)
f(%) Тe
(°С)
Pmin
(гПа)
dP
(гПа)
Po
(мм)
O2
(г/м3)
Тmin Tmax R s Состояние
почвы
18 18.06.18 220 (ЮЗ) 3-7  н/о    н/о 
+21.7 +15 66 +30  1015  753  278           
21 18.06.18 270 (З) 2-4  н/о    н/о 
+18 +9.5 58 +19  1016.4  1.2  754  283           
00 19.06.18 тихо () -1  н/о    н/о 
+13.2 +11.9 92 +17  1017  0.5  754  287           
03 19.06.18 тихо () -1  н/о    н/о 
+13.1 +11.9 92 +17  1017.1  754  288           
06 19.06.18 200 (Ю) 2-4  н/о    н/о 
+17.8 +11.1 65 +22  1016.7  0.1  754  283           
09 19.06.18 230 (ЮЗ) 3-7  н/о    н/о 
+21.2 +9.7 48 +22  1015.3  -1.3  753  280           
12 19.06.18 220 (ЮЗ) 3-7  н/о    н/о 
+22.7 +10.8 47 +25  1013.3  -1.8  751  278           
15 19.06.18 240 (ЮЗ) 5-10  н/о    н/о 
+21.9 +10.9 50 +24  1012.3  -1.1  751  278           
18 19.06.18 250 (З) 5-10  н/о    н/о 
+20.7 +9 47 +21  1012.3  751  280           
21 19.06.18 260 (З) 3-6  н/о    н/о 
+16.6 +9.5 63 +17  1014.6  2.1  752  284           
00 20.06.18 210 (ЮЗ) 2-3  н/о    н/о 
+13.9 +10.3 79 +16  1014.9  0.2  752  287           
03 20.06.18 220 (ЮЗ) 2-5  н/о    н/о 
+14.5 +12.3 87 +19  1014.8  -0.1  752  285           
06 20.06.18 240 (ЮЗ) 4-8  н/о    н/о 
+17.7 +10.3 62 +19  1015.1  0.4  753  283           
09 20.06.18 250 (З) 5-10  н/о    н/о 
+20.6 +6.6 40 +21  1015.5  0.5  753  281           
12 20.06.18 240 (ЮЗ) 4-9  н/о    н/о 
+22.1 +4.3 31 +22  1015.2  -0.2  753  280           
15 20.06.18 280 (З) 5-9  н/о    н/о 
+22.7 +3 27 +23  1014.9  -0.4  753  280           
18 20.06.18 250 (З) 4-6  н/о    н/о 
+20.7 +4.1 34 +21  1014.5  -0.4  752  281           
21 20.06.18 230 (ЮЗ) 1-3  н/о    н/о 
+16.4 +6.5 52 +18  1015  0.3  752  285           
00 21.06.18 тихо () -1  н/о    н/о 
+12.3 +7.3 71 +12  1014.3  -0.8  752  289           
03 21.06.18 190 (Ю) 2-4  н/о    н/о 
+15.1 +10.5 74 +18  1013.4  -0.8  751  285           
06 21.06.18 190 (Ю) 4-6  н/о    н/о 
+19.4 +11.6 61 +23  1012.7  -0.5  751  280           
09 21.06.18 220 (ЮЗ) 4-8  н/о    н/о 
+24.3 +9.6 39 +25  1010.1  -2.3  749  276           
12 21.06.18 200 (Ю) 4-9  н/о    н/о 
+26.2 +10.2 37 +28  1008  -2.1  748  273           
18 21.06.18 150 (ЮВ) 4-6  н/о    н/о 
+25.5 +10.9 40 +28  1002.1  -2.7  743  272           
21 21.06.18 150 (ЮВ) 5-9  н/о    н/о 
+24.5 +12.1 46 +29  999.8  -2.4  741  272           
Время (UTC), дата Ветер
(°,м/с) 
Видим.   Явления Облачность Т
(°С)
Тd
(°С)
f(%) Тe
(°С)
Pmin
(гПа)
dP
(гПа)
Po
(мм)
O2
(г/м3)
Тmin Tmax R s Состояние
почвы

Для получения пояснительной информации подведите курсор к названию столбца.

ПОГОДА в Даугавпилсе - архив

Всё, что Вы хотите узнать о погоде в Даугавпилсе - удобно и подробно!

Выберите нужную дату (начиная с 1 января 2015* года) и нажмите кнопку "Найти".
Будут отображены архивные сводки погоды по пункту Даугавпилс, начиная с указанной даты.


Отображать данные в формате CSV (для использования в таблицах Excel)


Внимание! Наш архив погоды предназначен исключительно для личного некоммерческого использования в познавательных целях. Если Вам необходимы официальные справки о состоянии погоды (для производственных, юридических, коммерческих и т.п. целей), обращайтесь в органы Росгидромета.

*Примечание: данная дата относится к архиву по метеостанциям СССР (Россия, СНГ, Балтия).
Архив по метеостанциям Зарубежной Европы и Азии (кроме Китая) хранится 10 дней, по другим регионам земного шара (Китай, Африка, Америка, Австралия, Океания) - 1 день.

Даугавпилс - район местоположения метеостанции


Название, широта, долгота, высота метеостанции:
Даугавпилс 55.9°ш. 26.6°д. 122 м над ур. моря [Латвия]

Дополнительная информация

В oтличие oт бoльшинства пoгoдных сайтoв мы публикуем пoдрoбную метеoинфoрмацию в детальнoм прoфессиoнальнoм фoрмате.

Характеристики температуры и влажнoсти вoздуха измеряются на высoте 2 м в тени вдали oт зданий и деревьев.
Скoрoсть ветра измеряется на высoте 10 м (на урoвне рoста челoвека скoрoсть ветра ниже в 1.5-2 раза). Если метеoстанция нахoдится в гoрoде или в лесу, тo скoрoсть ветра занижена на 2-4 м/с пo сравнению с oткрытым местoм. Скoрoсть ветра над акватoриями крупных рек и oзёр, а также на вершинах хoлмoв на 2-5 м/с выше, чем в oбычных услoвиях.
Атмoсфернoе давление в разных тoчках местнoсти мoжет значительнo oтличаться oт давления на метеoстанции, в зависимoсти oт услoвий рельефа (при пoдъёме на 10 м давление пoнижается примернo на 1 мм рт.ст.).